Wind_Speed
33 34 34 34 33 33 34 35 37 36 36 36 38 39 40 41 42 42 43 44 44 45 45 46 46 46 47 47 48 48 48 48 49 49 50 51 51 51 52 53 53 53 52 53
35 35 35 35 34 34 35 36 37 37 37 38 39 40 41 42 42 43 43 44 45 45 45 45 45 46 46 47 47 48 48 48 48 49 50 50 51 51 51 51 51 50 50 51
36 35 36 36 34 35 36 37 38 38 38 39 40 41 42 42 43 43 44 44 45 45 45 45 46 46 47 47 48 48 49 49 49 49 49 50 50 50 51 51 51 51 50 50
37 36 36 36 35 35 36 37 38 39 39 41 41 42 42 43 43 44 44 44 45 45 45 45 46 46 47 47 48 49 49 49 49 49 49 49 49 50 50 50 50 50 50 51
37 37 37 35 35 35 36 37 37 39 40 41 42 42 43 44 44 44 44 45 45 45 45 46 46 47 47 48 48 49 49 48 49 49 49 48 48 48 49 48 48 48 49 50
36 37 38 37 36 36 37 38 37 38 39 41 42 42 43 43 44 44 45 45 45 46 46 46 47 47 47 48 48 48 48 48 48 48 48 48 48 47 48 47 47 47 47 48
35 36 37 37 37 37 38 39 39 39 40 41 41 42 42 43 43 44 44 45 45 46 46 47 47 48 47 47 47 47 47 47 47 47 48 48 48 47 47 47 46 46 46 46
34 36 36 37 38 38 38 38 39 39 40 40 41 42 42 42 43 43 44 45 45 46 47 47 48 47 47 47 47 46 46 47 47 47 47 47 46 46 46 46 45 45 45 44
34 35 36 36 37 37 38 39 39 40 40 41 41 41 42 42 43 43 44 44 45 46 46 47 47 47 47 46 46 46 46 46 46 46 46 46 45 45 45 45 45 44 43 41
35 35 36 36 37 38 39 40 41 41 41 41 41 41 42 43 43 44 45 45 45 46 46 46 46 47 46 46 45 45 45 45 45 45 44 44 44 44 44 44 44 42 40 39
35 35 36 37 38 39 40 41 42 42 42 42 42 43 43 43 44 45 45 45 45 46 46 47 46 46 46 45 44 44 44 44 44 43 42 42 42 42 42 42 41 40 38 37
37 37 38 39 40 41 42 42 43 43 43 43 43 43 44 44 45 45 45 46 46 46 46 46 46 46 45 45 44 44 43 43 43 42 41 41 40 40 40 39 38 37 36 36
38 39 40 41 41 42 42 42 43 43 42 42 43 43 43 43 44 45 45 45 45 46 46 45 45 44 43 43 43 43 42 42 42 41 40 40 39 38 37 36 36 36 35 35
39 40 40 41 41 41 42 42 42 42 42 42 42 42 43 43 44 45 45 45 45 45 45 44 44 43 42 42 42 41 41 40 41 40 39 39 38 37 36 34 33 33 34 33
40 40 40 40 40 40 41 41 41 41 41 42 42 42 43 43 44 44 45 44 44 44 44 43 43 43 43 42 41 41 40 40 40 39 39 38 37 36 35 34 32 31 31 31
39 39 39 39 39 39 39 40 40 41 41 41 42 42 43 44 44 44 44 44 44 43 43 43 43 43 42 41 41 40 40 39 38 37 37 36 36 35 34 33 32 31 30 30
36 36 37 37 37 37 38 39 40 41 41 42 42 43 43 43 44 44 44 43 43 42 42 42 42 41 41 40 39 38 38 37 36 36 36 35 35 34 33 32 32 31 30 29
35 35 36 36 36 37 38 39 40 41 42 42 42 42 43 43 43 43 42 42 41 41 41 41 40 40 39 38 38 37 36 36 35 35 35 34 33 32 31 30 30 29 28 27
34 35 36 37 38 38 39 40 40 41 41 41 41 42 42 42 41 41 41 40 40 40 40 40 40 39 37 37 36 35 35 35 34 34 33 32 32 31 30 29 28 26 25 25
35 36 37 37 38 38 39 39 40 39 40 40 40 40 40 39 39 39 39 39 39 38 38 39 38 37 36 35 35 34 33 33 32 32 31 30 30 29 29 28 27 25 24 23
36 37 37 38 38 38 38 38 38 38 39 39 39 38 38 38 38 38 37 37 38 38 38 37 37 36 35 35 34 33 33 32 31 30 30 29 28 27 27 26 25 25 23 22
36 37 37 37 37 37 37 37 37 37 38 38 38 37 37 37 37 37 37 37 37 37 37 36 36 35 35 34 33 32 32 31 30 30 30 29 27 26 25 24 23 23 22 21
36 36 36 36 36 35 36 36 36 36 37 36 36 36 36 36 36 36 36 36 37 36 36 35 35 35 34 33 32 31 30 30 29 29 28 27 25 24 23 22 22 21 20 19
35 35 35 35 35 35 35 35 36 36 35 35 36 36 35 35 35 36 36 36 36 35 35 35 34 33 33 31 31 30 29 28 28 27 26 25 25 24 23 22 20 19 18 18
35 35 35 34 34 34 34 35 35 35 35 35 35 35 35 35 35 35 35 35 35 34 34 33 33 32 31 30 29 28 27 27 26 26 25 24 24 23 21 20 18 18 17 17
35 34 33 33 34 34 34 34 34 34 34 34 34 34 34 34 34 34 34 33 33 32 32 32 31 30 29 28 27 26 26 25 25 25 24 24 23 22 20 19 18 17 16 16
33 33 33 33 33 33 33 33 33 34 33 33 32 33 33 33 33 33 32 32 31 31 30 30 29 28 27 27 26 25 25 24 24 24 23 23 22 21 19 17 16 16 15 15
Wind_Direction
285 285 286 285 284 284 284 287 288 290 291 292 292 294 295 296 296 296 296 296 296 295 294 293 293 291 290 289 289 289 289 287 286 285 285 284 283 282 281 280 280 279 279 278
286 285 285 285 286 285 285 286 288 289 290 291 292 294 295 297 297 297 297 297 297 297 295 295 293 292 292 291 290 290 290 289 288 287 285 285 285 283 282 282 281 281 280 280
287 286 285 286 289 286 285 287 288 289 290 290 292 294 296 297 297 298 298 298 299 298 297 295 294 293 293 293 292 292 292 291 289 288 287 286 285 285 284 282 282 281 280 280
287 286 285 289 289 288 287 287 288 289 290 291 293 295 296 297 298 298 298 298 299 299 297 296 295 294 293 294 294 294 293 292 290 289 288 287 286 285 285 284 283 282 281 281
287 287 287 289 290 290 290 289 290 291 291 292 293 294 295 297 298 298 298 298 299 299 298 297 297 296 294 294 294 294 294 293 291 290 289 288 288 287 286 286 284 283 282 282
288 288 289 291 292 292 292 292 293 293 293 293 294 294 296 296 297 297 298 298 299 299 299 298 298 297 296 295 294 295 294 294 293 291 289 288 288 289 288 287 286 285 284 283
288 289 290 293 294 296 295 296 296 295 295 296 297 297 297 297 297 298 298 299 299 299 299 299 299 298 297 296 295 295 295 295 294 293 291 290 289 289 289 288 287 286 285 283
289 290 292 294 294 295 296 296 296 297 298 298 298 298 299 299 299 299 299 300 300 300 300 301 300 299 299 298 296 295 295 295 295 294 292 291 290 289 289 288 288 287 286 284
289 290 292 293 294 295 296 296 297 298 298 298 299 300 300 300 300 300 300 300 301 301 302 302 301 300 299 298 297 296 296 296 295 295 294 293 291 290 289 288 288 288 286 284
289 291 291 292 293 294 296 297 298 298 298 298 299 300 300 300 300 300 301 302 302 302 303 303 302 301 300 299 297 297 297 297 296 295 294 293 292 291 290 289 288 288 286 284
290 292 292 292 293 295 297 297 297 297 297 298 298 298 299 300 300 301 301 302 303 303 303 303 302 302 300 299 298 298 299 299 298 297 295 294 293 293 292 291 290 288 285 282
292 292 293 293 294 295 296 297 297 297 298 298 298 298 299 299 300 301 302 302 303 304 304 304 303 302 301 300 300 299 299 299 298 297 296 295 294 294 294 291 289 289 286 284
292 293 293 294 294 295 295 296 296 297 297 298 299 299 300 301 302 302 303 303 303 304 304 304 303 303 302 302 301 300 299 299 298 297 296 295 294 294 294 291 289 289 286 283
292 293 294 295 295 295 295 296 297 297 298 298 299 300 301 302 303 304 304 304 304 305 305 305 304 304 304 303 302 302 301 300 299 298 297 296 295 294 294 292 289 288 286 282
293 294 295 295 295 296 296 297 297 298 299 299 300 301 302 302 303 304 305 305 305 305 305 305 305 304 303 303 302 302 301 300 300 299 297 296 296 294 293 292 290 288 287 282
293 294 296 296 297 297 296 297 298 298 300 300 301 301 302 303 304 305 306 306 306 306 305 305 305 305 304 303 302 302 301 301 301 300 298 297 296 294 292 290 289 287 287 284
294 295 297 297 298 298 298 299 299 300 300 301 302 302 303 304 305 306 306 307 307 306 306 306 306 306 305 305 304 303 302 301 301 300 299 298 296 294 292 290 289 286 285 284
296 296 296 297 298 299 300 301 301 301 302 302 303 304 304 304 305 306 307 307 307 307 307 308 308 307 307 306 306 305 303 303 302 301 300 298 297 295 293 291 289 286 284 282
296 296 297 298 299 300 301 301 302 303 303 304 304 304 305 306 306 306 307 307 307 308 308 309 309 309 309 308 308 307 306 304 304 303 302 300 299 296 294 291 289 287 283 281
297 297 298 298 299 300 301 302 303 303 304 305 306 306 307 307 308 308 308 308 308 309 309 310 310 309 309 310 309 309 308 307 305 304 303 302 300 298 295 292 290 287 283 280
297 298 299 299 300 301 302 302 303 305 306 307 307 308 309 310 310 310 310 310 310 310 310 311 311 311 311 310 310 310 309 308 307 306 304 303 301 299 296 293 290 287 283 279
298 298 300 300 300 301 302 303 304 306 307 308 308 309 309 310 311 311 311 311 311 311 311 311 312 312 312 311 311 310 309 308 307 306 305 304 302 300 297 294 290 286 282 278
299 300 301 301 300 301 302 304 305 307 308 309 310 310 310 311 312 312 313 313 313 313 312 312 313 313 312 312 311 311 310 309 308 308 307 306 304 302 299 295 291 287 281 276
300 300 301 301 300 301 302 304 306 308 309 310 311 311 312 312 314 314 315 315 315 315 314 314 315 314 314 313 313 312 311 310 310 309 308 307 304 302 299 295 291 285 279 274
300 300 301 300 300 302 303 305 307 308 309 310 311 312 313 313 315 316 316 317 317 317 316 316 316 315 315 315 314 314 313 312 311 310 310 308 306 303 300 295 289 284 278 273
300 300 300 300 301 302 304 306 307 309 310 311 311 313 314 315 316 317 318 319 319 320 320 319 318 317 317 316 316 315 314 313 313 312 312 310 308 305 301 295 289 283 277 272
299 299 300 301 302 303 305 307 308 310 311 311 312 314 315 316 317 317 318 319 320 321 323 323 323 322 320 319 318 317 316 316 315 314 313 311 309 307 302 296 290 284 278 273
Height
5635 5633 5630 5628 5627 5625 5622 5620 5617 5617 5614 5612 5607 5604 5600 5597 5593 5589 5585 5581 5576 5572 5568 5563 5559 5555 5551 5547 5543 5540 5536 5532 5528 5525 5522 5519 5516 5512 5509 5507 5504 5502 5499 5497
5627 5625 5622 5620 5619 5616 5614 5611 5609 5606 5605 5602 5598 5594 5591 5587 5583 5578 5574 5570 5565 5560 5556 5551 5547 5543 5539 5535 5531 5527 5523 5519 5515 5511 5508 5505 5501 5498 5495 5492 5489 5487 5484 5482
5618 5616 5612 5611 5611 5608 5605 5603 5600 5597 5596 5592 5588 5584 5580 5576 5572 5567 5563 5558 5554 5549 5544 5540 5535 5531 5526 5522 5518 5514 5510 5505 5501 5498 5494 5490 5487 5483 5480 5477 5475 5472 5470 5467
5607 5606 5603 5606 5601 5599 5596 5594 5591 5588 5585 5582 5578 5574 5569 5565 5561 5557 5552 5547 5542 5538 5533 5528 5523 5518 5514 5510 5505 5501 5496 5492 5488 5484 5480 5476 5473 5469 5466 5463 5460 5457 5455 5452
5598 5595 5594 5595 5592 5589 5586 5584 5582 5578 5575 5571 5567 5563 5560 5555 5550 5545 5541 5536 5531 5526 5521 5516 5511 5507 5502 5497 5493 5488 5483 5478 5474 5470 5466 5462 5459 5455 5451 5448 5445 5443 5440 5438
5590 5586 5584 5586 5583 5579 5577 5575 5572 5568 5564 5561 5557 5553 5550 5544 5539 5534 5529 5525 5520 5515 5510 5504 5499 5494 5490 5485 5480 5475 5470 5465 5460 5456 5452 5449 5445 5441 5438 5434 5431 5428 5426 5423
5581 5577 5576 5576 5573 5570 5568 5566 5561 5557 5554 5550 5546 5542 5538 5533 5528 5523 5518 5513 5508 5503 5498 5493 5487 5482 5477 5472 5467 5462 5457 5452 5447 5443 5439 5435 5432 5428 5424 5421 5418 5415 5413 5410
5573 5569 5570 5567 5563 5561 5558 5554 5550 5546 5543 5539 5535 5531 5526 5521 5517 5512 5507 5502 5497 5492 5486 5481 5475 5470 5465 5460 5455 5449 5445 5440 5435 5430 5426 5422 5418 5415 5411 5408 5405 5402 5399 5397
5565 5564 5561 5557 5554 5551 5548 5544 5540 5537 5533 5529 5524 5520 5515 5511 5506 5501 5496 5491 5486 5480 5475 5469 5463 5458 5453 5447 5442 5437 5432 5427 5422 5417 5413 5409 5405 5402 5398 5395 5391 5389 5386 5384
5556 5554 5551 5548 5544 5541 5538 5534 5530 5526 5522 5518 5514 5510 5505 5500 5495 5491 5485 5480 5474 5469 5463 5458 5452 5446 5440 5435 5430 5425 5420 5415 5410 5405 5401 5397 5393 5389 5386 5382 5379 5376 5373 5371
5547 5545 5542 5539 5535 5531 5528 5524 5520 5516 5511 5507 5503 5499 5494 5489 5484 5479 5474 5469 5463 5457 5452 5446 5440 5434 5428 5423 5418 5413 5408 5403 5398 5394 5389 5385 5382 5377 5374 5370 5366 5364 5362 5360
5538 5535 5532 5529 5525 5521 5517 5513 5509 5505 5501 5496 5492 5488 5483 5478 5473 5468 5463 5457 5452 5446 5440 5434 5428 5422 5417 5411 5406 5401 5397 5392 5387 5383 5378 5374 5371 5367 5362 5359 5356 5352 5350 5348
5528 5525 5521 5518 5515 5511 5506 5502 5498 5494 5490 5486 5481 5476 5472 5467 5462 5456 5451 5445 5440 5434 5428 5422 5417 5411 5405 5400 5395 5390 5385 5380 5376 5371 5367 5363 5360 5356 5353 5350 5345 5342 5340 5338
5518 5514 5511 5507 5504 5500 5495 5492 5487 5483 5479 5475 5470 5466 5461 5456 5450 5445 5439 5434 5428 5423 5417 5411 5406 5400 5394 5389 5384 5379 5374 5369 5365 5360 5356 5352 5348 5345 5342 5339 5337 5334 5331 5329
5507 5504 5500 5497 5493 5489 5485 5481 5477 5473 5468 5464 5459 5455 5450 5445 5439 5434 5428 5423 5417 5412 5406 5400 5395 5389 5383 5378 5373 5368 5363 5358 5354 5349 5345 5341 5338 5334 5331 5328 5326 5324 5322 5320
5497 5493 5490 5486 5482 5478 5475 5471 5467 5463 5458 5453 5449 5444 5439 5434 5428 5423 5417 5411 5406 5401 5395 5389 5384 5378 5372 5367 5362 5357 5352 5347 5343 5339 5335 5331 5327 5324 5321 5318 5316 5314 5312 5311
5487 5483 5480 5476 5472 5468 5465 5461 5456 5452 5448 5443 5438 5433 5428 5423 5417 5412 5406 5400 5395 5389 5384 5379 5373 5367 5362 5356 5351 5346 5342 5337 5333 5328 5324 5321 5317 5314 5311 5308 5306 5304 5302 5301
5477 5474 5470 5467 5463 5459 5455 5451 5446 5442 5437 5432 5427 5422 5417 5412 5406 5401 5395 5390 5384 5379 5373 5368 5363 5357 5351 5346 5341 5336 5332 5327 5323 5319 5315 5311 5308 5304 5301 5299 5297 5295 5293 5292
5467 5464 5461 5457 5453 5449 5445 5440 5436 5431 5427 5422 5417 5411 5406 5401 5396 5391 5385 5380 5374 5369 5364 5358 5352 5347 5342 5336 5331 5327 5322 5318 5313 5309 5305 5302 5298 5295 5292 5290 5288 5286 5285 5284
5458 5454 5451 5447 5443 5439 5435 5430 5426 5421 5416 5411 5407 5401 5396 5391 5386 5381 5375 5370 5364 5359 5354 5348 5343 5338 5332 5327 5322 5318 5313 5308 5304 5300 5296 5293 5290 5286 5284 5281 5279 5278 5277 5276
5448 5445 5441 5437 5433 5429 5425 5420 5416 5411 5407 5402 5397 5392 5387 5382 5377 5371 5366 5361 5355 5350 5344 5339 5334 5328 5323 5319 5314 5309 5304 5300 5296 5292 5288 5285 5281 5278 5275 5273 5271 5270 5269 5269
5438 5435 5431 5427 5423 5419 5415 5411 5407 5402 5397 5393 5388 5383 5378 5373 5368 5362 5357 5352 5346 5341 5335 5330 5325 5320 5315 5310 5305 5300 5296 5292 5288 5284 5280 5276 5273 5270 5268 5265 5264 5262 5262 5261
5429 5425 5421 5418 5414 5410 5406 5402 5397 5393 5388 5383 5378 5374 5369 5363 5358 5353 5348 5343 5337 5332 5326 5321 5316 5311 5306 5301 5297 5292 5288 5284 5280 5276 5272 5269 5266 5263 5260 5258 5257 5256 5255 5255
5419 5415 5412 5408 5404 5401 5397 5393 5388 5384 5379 5374 5370 5365 5360 5355 5350 5344 5339 5334 5328 5323 5318 5313 5308 5303 5298 5293 5289 5284 5280 5276 5272 5269 5265 5262 5259 5256 5254 5252 5250 5249 5249 5249
5410 5406 5402 5399 5395 5392 5388 5384 5379 5375 5370 5366 5361 5356 5351 5346 5342 5336 5331 5326 5320 5315 5310 5305 5300 5295 5290 5286 5281 5277 5273 5269 5266 5262 5258 5255 5252 5249 5247 5245 5244 5243 5243 5243
5400 5397 5393 5390 5387 5383 5379 5375 5371 5366 5362 5357 5353 5348 5343 5338 5333 5328 5323 5318 5313 5308 5303 5298 5292 5288 5283 5279 5275 5271 5267 5263 5259 5255 5252 5249 5246 5243 5241 5239 5238 5238 5237 5237
5391 5388 5384 5381 5378 5374 5370 5366 5362 5358 5353 5349 5345 5340 5335 5330 5326 5321 5316 5311 5306 5301 5296 5291 5286 5282 5277 5273 5269 5265 5261 5257 5253 5250 5246 5243 5240 5237 5235 5234 5233 5232 5232 5232